Terminal Aerodrome Forecast
Issued by NWS

Home | Current Version | Previous Version | Text Only | Print | Product List | Glossary On
Versions: 1 2 3 4 5 6 7 8 9 10 11 12 13 14 15 16 17 18 19 20 21 22 23 24 25 26 27 28 29 30 31 32 33 34 35 36 37 38 39 40 41 42 43 44 45 46 47 48 49 50
000
FTUS41 KCTP 281424 AAB
TAFLNS
TAF AMD
KLNS 281424Z 2814/2912 29005KT 5SM BR OVC070
     FM281500 26005KT 6SM BR OVC070
     FM281530 29008G15KT P6SM OVC040
     FM282000 30003KT P6SM OVC100=

USA.gov is the U.S. government's official web portal to all federal, state and local government web resources and services.